Flag for Spain Weather past 2 weeks in Las Palmas, Canary Islands, Spain

Now
73 °F

Passing clouds.


Feels Like: 76 °F
Forecast: 70 / 78 °F
Wind: 20 mph from North

Location: Las Palmas De Gran Canaria / Gando

Current Time: Jul 30, 2014 at 3:06:47 AM

Latest Report: Jul 30, 2014 at 2:30 AM


Visibility: N/A

Pressure: 29.98 "Hg

Humidity: 65%

Dew point: 61 °F

Location of Las PalmasLocation

Historic Weather in Las Palmas — Graph

°F

Las Palmas temperature yesterday

Maximum temperature yesterday: 82 °F (at 3:00 PM)
Minimum temperature yesterday: 72 °F (at 1:00 AM)
Average temperature yesterday: 76 °F

Past Weeks' High & Low Weather Summary

 TemperatureHumidityPressure
High82 °F (Jul 22, 3:00 PM)83% (Jul 23, 4:30 AM)30.15 "Hg (Jul 23, 4:30 AM)
Low70 °F (Jul 15, 2:00 AM)45% (Jul 26, 2:30 PM)29.95 "Hg (Jul 29, 4:00 PM)
Average75 °F65%30.06 "Hg
* Reported Jul 15 2:00 AM — Jul 30 2:00 AM, Las Palmas, Weather by CustomWeather, © 2014

Note: Actual official high and low records may vary slightly from our data, if they occured in-between our weather recording intervals... More about our weather records

Advertising

Las Palmas weather history for previous 24 hours

 ConditionsComfort  
Time TempWeatherWind HumidityBarometerVisibility
2:00 AM
Jul 30
73 °FPassing clouds.18 mph65%29.98 "HgN/A
1:30 AM73 °FPassing clouds.20 mph65%29.98 "HgN/A
1:00 AM73 °FPassing clouds.16 mph65%30.01 "HgN/A
12:30 AM73 °FPassing clouds.17 mph69%30.01 "HgN/A
12:00 AM73 °FPassing clouds.16 mph65%30.01 "HgN/A
11:30 PM
Jul 29
73 °FPassing clouds.17 mph65%30.01 "HgN/A
11:00 PM73 °FPassing clouds.16 mph65%30.01 "HgN/A
10:30 PM73 °FPassing clouds.17 mph65%30.01 "HgN/A
10:00 PM73 °FPassing clouds.18 mph69%30.01 "HgN/A
9:30 PM75 °FPassing clouds.17 mph65%30.01 "HgN/A
9:00 PM75 °FPassing clouds.22 mph65%30.01 "HgN/A
8:30 PM75 °FPassing clouds.23 mph65%29.98 "HgN/A
8:00 PM77 °FPassing clouds.25 mph61%29.98 "HgN/A
7:30 PM79 °FPassing clouds.24 mph65%29.98 "HgN/A
7:00 PM79 °FPassing clouds.26 mph61%29.95 "HgN/A
6:30 PM79 °FSunny.29 mph58%29.95 "Hg10 mi
6:00 PM81 °FSunny.28 mph51%29.95 "Hg10 mi
5:30 PM81 °FSunny.28 mph51%29.95 "Hg10 mi
5:00 PM81 °FSunny.31 mph51%29.95 "Hg10 mi
4:30 PM82 °FPassing clouds.30 mph48%29.95 "HgN/A
4:00 PM82 °FSunny.30 mph48%29.95 "Hg10 mi
3:30 PM82 °FSunny.29 mph45%29.98 "Hg10 mi
3:00 PM82 °FSunny.28 mph48%29.98 "Hg10 mi
2:30 PM81 °FSunny.30 mph51%30.01 "Hg10 mi
2:00 PM81 °FSunny.28 mph48%30.01 "Hg10 mi
1:30 PM81 °FPassing clouds.30 mph48%30.04 "HgN/A
1:00 PM81 °FPassing clouds.28 mph48%30.04 "HgN/A
12:30 PM79 °FPassing clouds.28 mph51%30.04 "HgN/A
12:00 PM77 °FPartly sunny.25 mph57%30.07 "HgN/A
11:30 AM77 °FPartly sunny.24 mph61%30.07 "HgN/A
11:00 AM77 °FScattered clouds.24 mph57%30.04 "HgN/A
10:30 AM77 °FPartly sunny.24 mph57%30.04 "HgN/A
10:00 AM77 °FPartly sunny.22 mph57%30.04 "HgN/A
9:30 AM75 °FPartly sunny.20 mph57%30.04 "HgN/A
9:00 AM75 °FPartly sunny.22 mph61%30.04 "HgN/A
8:30 AM73 °FPartly sunny.22 mph69%30.04 "HgN/A
8:00 AM73 °FPassing clouds.17 mph65%30.04 "HgN/A
7:30 AM73 °FPassing clouds.15 mph61%30.04 "HgN/A
7:00 AM72 °FPassing clouds.17 mph65%30.04 "HgN/A
6:30 AM72 °FPassing clouds.20 mph65%30.04 "HgN/A
6:00 AM72 °FPassing clouds.17 mph73%30.04 "HgN/A
5:30 AM72 °FPassing clouds.16 mph65%30.01 "HgN/A
5:00 AM72 °FPassing clouds.15 mph65%30.04 "HgN/A
4:30 AM72 °FPassing clouds.20 mph65%30.04 "HgN/A
3:30 AM72 °FPassing clouds.18 mph69%30.04 "HgN/A
3:00 AM72 °FPassing clouds.15 mph69%30.04 "HgN/A
Weather by CustomWeather, © 2014

See weather overviewHow to use our weather pages